{"data":{"norad_id":67520,"intl_designator":"2026-012AD","name":"STARLINK-36547","alt_names":[],"object_type":"PAYLOAD","status":"ACTIVE","operator":null,"country":"US","launch_date":"2026-01-18","launch_site_code":"AFETR","launch_vehicle":null,"mission":null,"orbit_class":"UNKNOWN","rcs_meters":null,"size_class":null,"mass_kg":null,"dimensions":null,"purposes":["comms"],"wikipedia_slug":null,"has_3d_model":false,"image_url":null,"decayed_at":null,"tle_current":{"epoch":"2026-05-24T23:44:24.732096Z","epoch_age_seconds":79255,"freshness":"FRESH","line1":"1 67520U 26012AD  26144.98917514  .00017523  00000+0  64485-3 0  9999","line2":"2 67520  43.0008 243.2533 0000501 268.0037  92.0757 15.27575943 19436","mean_motion":15.27575943,"eccentricity":5.01e-5,"inclination_deg":43.0008,"raan_deg":243.2533,"arg_perigee_deg":268.0037,"mean_anomaly_deg":92.0757,"bstar":0.00064485,"rev_number":1943,"period_min":94.266999071221,"perigee_km":482.717498152,"apogee_km":483.40499021607,"semimajor_km":6861.198244184,"source":"CELESTRAK","updated_at":"2026-05-25T13:38:21.604159Z"}}}